Covington, KY

5:52 AM EST on December 06, 2019 (GMT -0500)
Cincinnati-Northern KY International

Weather History for KCVG - October, 2019

Change the Weather History Date:

Friday, October 18, 2019

  Actual Average Record
Temperature  
Mean Temperature 50 °F 55 °F  
Max Temperature 63 °F 65 °F 86 °F (1938)
Min Temperature 38 °F 45 °F 26 °F (1948)
Degree Days  
Heating Degree Days 14 10  
Month to date heating degree days 106 143  
Since 1 July heating degree days 106 201  
Cooling Degree Days 0 0  
Month to date cooling degree days 54 16  
Year to date cooling degree days 1496 1121  
Moisture  
Dew Point 37 °F    
Average Humidity 63    
Maximum Humidity 92    
Minimum Humidity 36    
Precipitation  
Precipitation 0.00 in 0.12 in 3.64 in (2004)
Month to date precipitation 1.11 1.92  
Year to date precipitation 43.53 34.34  
Snow  
Snow 0.00 in 0.00 in - ()
Month to date snowfall 0.0 0.1  
Since 1 July snowfall 0.0 0.1  
Since 1 September snowfall 0.0 0.1  
Snow Depth 0.00 in    
Sea Level Pressure  
Sea Level Pressure 30.04 in    
Wind  
Wind Speed 4 mph ()    
Max Wind Speed 10 mph    
Max Gust Speed 13 mph    
Visibility 9.6 miles    
Events Fog    
T = Trace of Precipitation, MM = Missing Value Source: Averaged Metar Reports

Daily Weather History Graph

Daily Weather History Graph

Search for Another Location

Airport or City:

Astronomy

Oct. 18, 2019 Rise Set
Actual Time 7:51 AM EDT 6:55 PM EDT
Civil Twilight 7:23 AM EDT 7:22 PM EDT
Nautical Twilight 6:52 AM EDT 7:54 PM EDT
Astronomical Twilight 6:22 AM EDT 8:24 PM EDT
Moon 10:13 PM EDT (10/18) 12:21 PM EDT (10/18)
Length of Visible Light 11h 59m
Length of Day
11h 04m
Waning Gibbous, 79% of the Moon is Illuminated
Oct 18
Waning Gibbous
Oct 21
Last Quarter
Oct 27
New
Nov 4
First Quarter
Nov 12
Full

Hourly Weather History & Observations

Time (EDT) Temp. Windchill Dew Point Humidity Pressure Visibility Wind Dir Wind Speed Gust Speed Precip Events Conditions
12:52 AM 46.0 °F 43.1 °F 36.0 °F 68% 30.03 in 10.0 mi North 5.8 mph - N/A   Clear
1:52 AM 44.1 °F 40.8 °F 36.0 °F 73% 30.03 in 10.0 mi NNE 5.8 mph - N/A   Clear
2:52 AM 44.1 °F 40.8 °F 36.0 °F 73% 30.03 in 10.0 mi North 5.8 mph - N/A   Clear
3:52 AM 42.1 °F - 36.0 °F 79% 30.04 in 10.0 mi Calm Calm - N/A   Clear
4:52 AM 39.9 °F 37.8 °F 35.1 °F 83% 30.04 in 10.0 mi NW 3.5 mph - N/A   Clear
5:52 AM 41.0 °F 38.0 °F 36.0 °F 82% 30.06 in 10.0 mi NNW 4.6 mph - N/A   Clear
6:52 AM 39.9 °F 37.8 °F 37.0 °F 89% 30.08 in 8.0 mi NNE 3.5 mph - N/A   Clear
7:52 AM 39.0 °F 34.8 °F 36.0 °F 89% 30.09 in 7.0 mi NNE 5.8 mph - N/A Fog Patches of Fog
8:52 AM 43.0 °F 41.3 °F 37.9 °F 82% 30.10 in 6.0 mi North 3.5 mph - N/A   Clear
9:52 AM 46.9 °F - 39.9 °F 77% 30.11 in 9.0 mi ENE 6.9 mph - N/A   Clear
10:52 AM 51.1 °F - 37.9 °F 61% 30.10 in 10.0 mi ENE 9.2 mph - N/A   Partly Cloudy
11:52 AM 55.0 °F - 39.0 °F 55% 30.10 in 10.0 mi East 5.8 mph - N/A   Partly Cloudy
12:52 PM 55.9 °F - 37.9 °F 51% 30.09 in 10.0 mi ENE 3.5 mph - N/A   Mostly Cloudy
1:52 PM 57.0 °F - 37.0 °F 47% 30.06 in 10.0 mi SE 5.8 mph - N/A   Mostly Cloudy
2:52 PM 59.0 °F - 37.0 °F 44% 30.04 in 10.0 mi Calm Calm - N/A   Mostly Cloudy
3:52 PM 61.0 °F - 36.0 °F 39% 30.03 in 10.0 mi South 5.8 mph - N/A   Mostly Cloudy
4:52 PM 62.1 °F - 36.0 °F 38% 30.02 in 10.0 mi SSW 8.1 mph - N/A   Mostly Cloudy
5:52 PM 61.0 °F - 36.0 °F 39% 30.01 in 10.0 mi South 4.6 mph - N/A   Scattered Clouds
6:52 PM 57.0 °F - 37.0 °F 47% 29.99 in 10.0 mi East 6.9 mph - N/A   Partly Cloudy
7:52 PM 55.0 °F - 37.9 °F 53% 30.01 in 10.0 mi Calm Calm - N/A   Partly Cloudy
8:52 PM 52.0 °F - 37.9 °F 59% 30.00 in 10.0 mi ESE 3.5 mph - N/A   Clear
9:52 PM 51.1 °F - 37.0 °F 59% 30.00 in 10.0 mi ESE 5.8 mph - N/A   Clear
10:52 PM 51.1 °F - 37.0 °F 59% 29.99 in 10.0 mi SE 5.8 mph - N/A   Clear
11:52 PM 50.0 °F - 36.0 °F 59% 29.98 in 10.0 mi Calm Calm - N/A   Partly Cloudy